Weather observations for the past three days for
South Hill, Mecklenburg-Brunswick Regional Airport
Imperial (Metric)
Date Time (edt) Wind (mph) Vis. (mi.) Weather Sky Cond. Temperature (ºF) Relative Humidity Wind Chill (°F) Heat Index (°F) Pressure Precipitation (in)
Air Dwpt 6 hour altimeter (in) sea level (mb) 1 hr 3 hr 6 hr
Max. Min.
23 17:55 S 7 10.00 Partly Cloudy SCT008 SCT047 SCT070 77.5 76.8 98% 79 30.12 0.0 0.02
23 17:35 S 16 G 21 10.00 Thunderstorm in Vicinity SCT047 SCT070 SCT100 78.1 77.7 99% 81 30.15 0.0 0.02
23 17:15 S 5 7.00 Thunderstorm SCT039 SCT065 OVC100 76.6 76.1 98% 77 30.13 0.0 0.02
23 16:55 SW 3 7.00 Overcast SCT070 OVC100 75.6 75.2 99% 74 30.13 0.0 0.04 0.14
23 16:35 W 6 7.00 Thunderstorm SCT100 SCT120 76.5 76.1 99% 76 30.14 0.0 0.01
23 16:15 Calm 10.00 Thunderstorm in Vicinity SCT043 SCT060 SCT080 77.4 76.3 96% 79 30.13 0.0
23 15:55 Calm 10.00 Overcast SCT043 BKN065 OVC120 77.9 77.5 99% 80 30.12 0.0 0.1
23 15:35 Calm 10.00 Overcast SCT039 BKN060 OVC090 77.9 77.2 98% 80 30.12 0.0 0.1
23 15:15 W 5 4.00 Overcast SCT060 BKN070 OVC110 78.1 77.5 98% 81 30.13 0.0 0.09
23 14:55 W 3 10.00 Partly Cloudy SCT095 SCT120 81 72 74% 85 30.13 0.0
23 14:35 Calm 10.00 Partly Cloudy SCT028 SCT034 SCT041 81.5 72.5 74% 86 30.13 0.0
23 14:15 S 6 10.00 Mostly Cloudy SCT031 SCT041 BKN060 85.6 76.6 75% 96 30.12 0.0
23 13:55 S 5 10.00 Mostly Cloudy SCT035 SCT060 BKN110 88.7 75.9 89.6 76.1 66% 100 30.13 0.0
23 13:35 S 7 10.00 Partly Cloudy SCT033 SCT039 SCT047 89.1 75.7 65% 100 30.14 0.0
23 13:15 Calm 10.00 Partly Cloudy SCT031 SCT038 88 75.4 66% 98 30.14 0.0
23 12:55 SW 7 10.00 Mostly Cloudy BKN031 88.7 75.6 65% 99 30.15 0.0
23 12:35 W 5 10.00 Partly Cloudy SCT029 SCT036 SCT045 87.6 75.2 67% 97 30.16 0.0
23 12:15 SW 7 10.00 Partly Cloudy SCT027 SCT034 88 75.9 68% 99 30.16 0.0
23 11:55 S 3 10.00 Mostly Cloudy BKN025 87.6 76.6 70% 99 30.16 0.0
23 11:35 SW 3 10.00 Partly Cloudy SCT025 86.2 75 69% 95 30.15 0.0
23 11:15 SW 7 10.00 Fair CLR 86.4 76.1 72% 97 30.16 0.0
23 10:55 SW 5 10.00 Partly Cloudy SCT026 85.1 75.6 73% 94 30.16 0.0
23 10:35 SW 6 10.00 Partly Cloudy SCT018 84.2 76.1 77% 93 30.16 0.0
23 10:15 Calm 10.00 Partly Cloudy SCT016 83.7 76.3 79% 93 30.16 0.0
23 09:55 W 5 10.00 Fair CLR 82.6 76.3 81% 91 30.15 0.0
23 09:35 SW 6 10.00 Partly Cloudy SCT011 81.5 76.3 84% 89 30.15 0.0
23 09:15 SW 5 10.00 Partly Cloudy SCT009 80.6 76.5 87% 87 30.16 0.0
23 08:55 SW 7 10.00 Mostly Cloudy BKN007 78.6 76.1 92% 82 30.15 0.0
23 08:35 S 9 10.00 Overcast OVC007 77 76.3 98% 78 30.16 0.0
23 08:15 S 7 10.00 Overcast OVC005 76.1 75.7 99% 75 30.15 0.0
23 07:55 SW 8 10.00 Overcast OVC005 76.1 75.4 76.1 73.9 98% 75 30.15 0.0
23 07:35 SW 7 10.00 Overcast OVC005 75.4 74.8 98% 73 30.14 0.0
23 07:15 S 8 10.00 Overcast OVC003 74.8 74.3 98% 30.14 0.0
23 06:55 S 7 10.00 Mostly Cloudy BKN003 BKN008 74.3 73.9 99% 30.13 0.0
23 06:35 S 6 7.00 Mostly Cloudy SCT003 BKN007 74.3 73.8 98% 30.12 0.0
23 06:15 S 5 7.00 Partly Cloudy SCT007 74.1 73.6 98% 30.12 0.0
23 05:55 S 3 10.00 Partly Cloudy SCT009 74.3 73.6 98% 30.12 0.0
23 05:35 S 5 10.00 Partly Cloudy SCT011 74.3 73.8 98% 30.11 0.0
23 05:15 S 5 10.00 Mostly Cloudy SCT009 BKN013 74.5 74.1 99% 30.11 0.0
23 04:55 SW 3 10.00 Overcast OVC009 74.7 74.3 99% 30.11 0.0
23 04:35 Calm 10.00 Overcast OVC009 74.7 74.3 99% 30.11 0.0
23 04:15 S 5 10.00 Mostly Cloudy BKN009 BKN013 74.5 73.9 98% 30.1 0.0
23 03:55 S 5 10.00 Fair CLR 74.3 73.8 98% 30.09 0.0
23 03:35 SW 3 10.00 Fair CLR 74.7 74.3 99% 30.09 0.0
23 03:15 SW 3 10.00 Mostly Cloudy BKN009 74.7 74.3 99% 30.09 0.0
23 02:35 S 5 10.00 Partly Cloudy SCT007 SCT011 SCT046 75 74.5 98% 73 30.1 0.0
23 02:15 SW 6 10.00 Mostly Cloudy BKN007 75.4 75 99% 73 30.09 0.0
23 01:55 S 6 10.00 Overcast OVC007 75.4 75.2 77.4 74.3 99% 73 30.1 0.0
23 01:35 S 6 10.00 Overcast OVC007 75.2 74.7 98% 73 30.1 0.0
23 01:15 S 6 10.00 Overcast OVC007 74.8 74.5 99% 30.09 0.0
23 00:55 S 9 10.00 Overcast OVC007 74.7 74.3 99% 30.09 0.0
23 00:35 S 9 10.00 Overcast OVC005 74.7 74.3 99% 30.09 0.0
23 00:15 S 8 10.00 Overcast OVC005 74.7 74.3 99% 30.09 0.0
22 23:55 S 5 10.00 Mostly Cloudy BKN007 74.5 74.3 99% 30.09 0.0
22 23:35 S 5 10.00 Fair CLR 74.7 74.3 99% 30.09 0.0
22 23:15 S 7 10.00 Fair CLR 74.8 74.3 98% 30.1 0.0
22 22:55 S 8 10.00 Fair CLR 74.5 74.3 99% 30.09 0.0
22 22:35 S 8 10.00 Fair CLR 74.5 74.1 99% 30.1 0.0
22 22:15 S 6 10.00 Partly Cloudy SCT090 74.7 74.3 99% 30.1 0.0
22 21:55 S 7 10.00 Partly Cloudy SCT090 74.7 74.3 99% 30.09 0.0
22 21:35 S 8 10.00 Fair CLR 74.8 74.5 99% 30.08 0.0
22 21:15 S 7 10.00 Fair CLR 75.2 74.5 98% 73 30.07 0.0
22 20:55 S 8 10.00 Fair CLR 75.4 75 99% 73 30.05 0.0
22 20:35 S 8 10.00 Partly Cloudy SCT007 75.7 75.4 99% 74 30.04 0.0
22 20:15 S 8 10.00 Mostly Cloudy BKN009 76.6 76.1 98% 77 30.05 0.0
22 19:55 SW 12 10.00 Mostly Cloudy BKN009 77.4 76.6 85.1 77.4 98% 79 30.05 0.0
22 19:35 S 7 10.00 Mostly Cloudy BKN009 77.9 77.5 99% 80 30.04 0.0
22 19:15 S 8 10.00 Mostly Cloudy BKN009 78.1 77.2 97% 81 30.04 0.0
22 18:55 S 9 10.00 Partly Cloudy SCT011 78.8 76.6 93% 83 30.05 0.0
22 18:35 S 9 10.00 Fair CLR 79.3 76.1 90% 84 30.05 0.0
22 18:15 S 8 10.00 Fair CLR 79.7 76.5 90% 85 30.05 0.0
22 17:55 S 8 10.00 Thunderstorm in Vicinity CLR 78.6 76.3 93% 82 30.06 0.0
22 17:35 S 8 10.00 Fair CLR 79.7 75.2 86% 84 30.05 0.0
22 17:15 S 9 10.00 Thunderstorm in Vicinity CLR 81 76.5 86% 88 30.04 0.0
22 16:55 S 6 10.00 Thunderstorm in Vicinity SCT110 77.9 77.4 98% 80 30.04 0.0
22 16:35 S 8 10.00 Thunderstorm in Vicinity SCT050 SCT060 BKN120 78.4 77.9 98% 82 30.05 0.0
22 16:15 S 3 10.00 Overcast SCT050 BKN070 OVC110 79.2 78.8 99% 84 30.06 0.0
22 15:55 SW 3 10.00 Overcast SCT050 BKN070 OVC110 80.8 77.2 89% 88 30.06 0.0
22 15:35 Calm 10.00 Overcast SCT026 BKN060 OVC085 82.4 76.3 82% 90 30.07 0.0
22 15:15 SW 5 10.00 Overcast SCT026 BKN038 OVC070 83.3 74.3 74% 90 30.07 0.0
22 14:55 S 8 10.00 Mostly Cloudy BKN026 BKN037 84.6 75 73% 93 30.07 0.0
22 14:35 S 8 10.00 Mostly Cloudy BKN024 BKN029 BKN090 83.7 75.2 76% 92 30.07 0.0
22 14:15 S 7 10.00 Mostly Cloudy SCT021 BKN120 83.7 75.7 77% 92 30.08 0.0
22 13:55 S 8 10.00 Overcast BKN018 BKN080 OVC120 81.9 75.4 81.9 72.5 81% 89 30.09 0.0 0.03
22 13:35 S 7 10.00 Overcast BKN018 BKN080 OVC090 81.1 74.7 81% 87 30.1 0.0
22 13:15 S 6 10.00 Overcast OVC018 81 75.2 83% 87 30.11 0.0
22 12:55 S 5 10.00 Overcast OVC016 80.2 75.4 85% 86 30.11 0.0
22 12:35 S 6 10.00 Overcast OVC014 79.9 75 85% 85 30.12 0.0
22 12:15 S 5 10.00 Overcast BKN012 OVC018 78.6 75 89% 82 30.12 0.0
22 11:55 S 7 10.00 Overcast BKN010 BKN015 OVC075 78.4 76.1 93% 82 30.13 0.0 0.03
22 11:35 S 6 10.00 Overcast BKN010 BKN050 OVC110 77.2 74.3 91% 79 30.13 0.0 0.03
22 11:15 S 5 10.00 Overcast SCT009 BKN014 OVC039 75.6 75.2 99% 74 30.13 0.0 0.03
22 10:55 S 6 10.00 Overcast SCT008 BKN013 OVC039 75.6 75 98% 74 30.13 0.0
22 10:35 S 6 10.00 Overcast BKN008 OVC013 75.6 74.1 95% 74 30.13 0.0
22 10:15 S 6 10.00 Overcast BKN008 BKN033 OVC100 75 74.5 98% 73 30.13 0.0
22 09:55 Calm 10.00 Overcast BKN006 BKN046 OVC080 74.5 73.9 98% 30.13 0.0
22 09:35 S 3 10.00 Overcast OVC006 74.3 73.8 98% 30.14 0.0
22 09:15 SE 3 10.00 Overcast OVC006 74.1 73.6 98% 30.13 0.0
22 08:55 S 5 10.00 Overcast OVC006 74.1 73.4 98% 30.13 0.0
22 08:35 Calm 10.00 Overcast BKN004 BKN040 OVC110 73.4 72.9 98% 30.13 0.0
22 08:15 Calm 10.00 Mostly Cloudy BKN002 72.7 72.5 99% 30.12 0.0
22 07:55 Calm 10.00 Overcast OVC002 72.3 71.8 77 71.6 98% 30.12 0.0 0.23
22 07:35 Calm 10.00 Overcast BKN002 OVC075 72 71.6 99% 30.12 0.0
22 07:15 Calm 7.00 Overcast OVC002 71.8 71.6 99% 30.11 0.0
22 06:55 Calm 10.00 Mostly Cloudy BKN002 BKN110 71.8 71.2 98% 30.11 0.0
22 06:35 Calm 10.00 Overcast SCT002 OVC120 71.6 71.2 99% 30.1 0.0
22 06:15 Calm 10.00 Overcast OVC120 71.6 71.2 99% 30.1 0.0
22 05:55 Calm 10.00 Mostly Cloudy SCT005 BKN120 71.6 71.2 99% 30.09 0.0 0.01
22 05:35 Calm 10.00 Partly Cloudy SCT005 71.6 71.2 99% 30.09 0.0 0.01
22 05:15 Calm 10.00 Partly Cloudy SCT005 SCT010 SCT120 71.8 71.4 99% 30.09 0.0
22 04:55 Calm 10.00 Fair CLR 72 71.6 99% 30.09 0.0 0.09 0.22
22 04:35 Calm 10.00 Mostly Cloudy BKN110 72.1 71.6 98% 30.1 0.0 0.08
22 04:15 W 3 10.00 Mostly Cloudy BKN110 72.1 71.6 98% 30.11 0.0 0.03
22 03:55 SW 9 10.00 Mostly Cloudy BKN120 72.5 72 98% 30.12 0.0 0.12
22 03:35 SW 8 10.00 Thunderstorm in Vicinity SCT039 SCT080 BKN120 72.7 72.3 99% 30.1 0.0 0.06
22 03:15 SW 10 G 17 7.00 Overcast SCT010 BKN020 OVC110 74.5 73.4 96% 30.1 0.0 0.03
22 02:55 S 12 G 17 10.00 Overcast BKN010 OVC029 76.8 76.1 98% 77 30.1 0.0
22 02:35 S 5 10.00 Overcast BKN029 OVC060 75.6 75.2 99% 74 30.1 0.0
22 02:15 Calm 10.00 Mostly Cloudy SCT048 BKN060 BKN080 75.9 75.4 98% 75 30.11 0.0
22 01:55 Calm 10.00 Mostly Cloudy SCT050 SCT060 BKN110 76.1 75.6 82.2 74.3 98% 75 30.1 0.0
22 01:35 Calm 10.00 Fair CLR 75.4 74.8 98% 73 30.11 0.0
22 01:15 Calm 10.00 Fair CLR 75.4 75 99% 73 30.12 0.0
22 00:55 Calm 10.00 Fair CLR 75.6 75.2 99% 74 30.12 0.0
22 00:35 Calm 10.00 Fair CLR 76.1 75 96% 76 30.12 0.0
22 00:15 Calm 10.00 Fair CLR 75.9 74.8 96% 75 30.13 0.0
21 23:55 Calm 10.00 Fair CLR 75.6 75 98% 74 30.12 0.0
21 23:35 Calm 10.00 Fair CLR 74.8 74.5 99% 30.12 0.0
21 23:15 Calm 10.00 Fair CLR 74.5 73.9 98% 30.12 0.0
21 22:55 Calm 10.00 Fair CLR 74.8 74.3 98% 30.12 0.0
21 22:35 Calm 10.00 Fair CLR 76.1 75.4 98% 75 30.13 0.0
21 22:15 Calm 10.00 Fair CLR 75.7 75.2 98% 74 30.13 0.0
21 21:55 Calm 10.00 Fair CLR 75.9 75.4 98% 75 30.12 0.0
21 21:35 Calm 10.00 Fair CLR 75.9 75.4 98% 75 30.12 0.0
21 21:15 Calm 10.00 Fair CLR 76.6 76.1 98% 77 30.12 0.0
21 20:55 Calm 10.00 Fair CLR 77.4 76.1 96% 79 30.1 0.0
21 20:35 Calm 10.00 Fair CLR 77.9 76.5 95% 80 30.1 0.0
21 20:15 Calm 10.00 Fair CLR 80.6 74.3 81% 86 30.09 0.0
21 19:55 Calm 10.00 Fair CLR 82.4 73.6 88 82.4 75% 88 30.08 0.0
21 19:35 Calm 10.00 Fair CLR 83.5 73.4 72% 90 30.08 0.0
21 19:15 S 5 10.00 Fair CLR 84.4 72.5 68% 90 30.08 0.0
21 18:55 S 5 10.00 Fair CLR 85.6 73.2 67% 93 30.08 0.0
21 18:15 S 5 10.00 Fair CLR 85.6 72.5 65% 92 30.08 0.0
21 16:55 Calm 10.00 Partly Cloudy SCT042 87.8 71.6 59% 94 30.09 0.0
21 16:35 S 3 10.00 Partly Cloudy SCT041 86.9 70.5 58% 92 30.09 0.0
21 16:15 S 6 10.00 Mostly Cloudy BKN041 87.4 70.9 58% 93 30.09 0.0
21 15:55 Calm 10.00 Partly Cloudy SCT041 SCT050 87.6 70.3 57% 93 30.1 0.0
21 15:35 S 6 10.00 Fair CLR 87.4 71.1 58% 93 30.11 0.0
21 15:15 SW 3 10.00 Fair CLR 86.9 71.2 60% 93 30.11 0.0
21 14:55 Calm 10.00 Fair CLR 85.5 69.6 59% 90 30.11 0.0
21 14:35 SE 3 10.00 Fair CLR 86.9 71.8 61% 93 30.12 0.0
21 14:15 Calm 10.00 Partly Cloudy SCT030 SCT038 85.6 72 64% 92 30.12 0.0
21 13:55 Calm 10.00 Mostly Cloudy BKN030 84.7 72 84.9 72.7 66% 91 30.13 0.0
21 13:35 Calm 10.00 Partly Cloudy SCT030 SCT120 84.2 71.1 65% 89 30.14 0.0
21 13:15 S 3 10.00 Fair CLR 84.6 71.4 65% 90 30.14 0.0
21 12:55 Calm 10.00 Partly Cloudy SCT029 SCT039 83.7 71.2 66% 89 30.14 0.0
21 12:35 Calm 10.00 Partly Cloudy SCT029 83.3 71.4 68% 88 30.14 0.0
21 12:15 Calm 10.00 Partly Cloudy SCT027 83.3 70.5 65% 88 30.14 0.0
21 11:55 SW 3 10.00 Mostly Cloudy BKN027 83.7 71.6 67% 89 30.14 0.0
21 11:35 Calm 10.00 Fair CLR 83.1 71.1 67% 88 30.14 0.0
21 11:15 S 3 10.00 Fair CLR 82.4 72.3 72% 88 30.14 0.0
21 10:55 Calm 10.00 Fair CLR 81.9 72.1 72% 87 30.14 0.0
21 10:35 W 3 10.00 Fair CLR 80.8 72.7 76% 85 30.14 0.0
21 10:15 SW 3 10.00 Fair CLR 80.6 73.6 79% 85 30.14 0.0
21 09:55 Calm 10.00 Fair CLR 79.2 73.9 84% 83 30.14 0.0
21 09:35 W 3 10.00 Fair CLR 78.1 74.1 88% 81 30.14 0.0
21 09:15 Calm 10.00 Fair CLR 76.1 73.9 93% 76 30.14 0.0
21 08:55 Calm 10.00 Fair CLR 75.2 74.7 98% 73 30.14 0.0
21 08:35 Calm 10.00 Fair CLR 74.3 73.8 98% 30.14 0.0
21 08:15 Calm 10.00 Fair CLR 73.4 72.9 98% 30.14 0.0
21 07:55 Calm 10.00 Fair CLR 72.7 72.5 72.9 69.8 99% 30.13 0.0
21 07:35 Calm 10.00 Fair CLR 72.5 72 98% 30.14 0.0
21 07:15 Calm 5.00 Partly Cloudy SCT001 72.1 71.8 99% 30.13 0.0
21 06:35 Calm 5.00 Overcast BKN001 OVC006 71.8 71.4 99% 30.12 0.0
21 06:15 Calm 5.00 Overcast BKN001 OVC006 71.6 71.2 99% 30.12 0.0
21 05:55 Calm 7.00 Mostly Cloudy BKN001 BKN007 BKN120 71.6 70.9 98% 30.11 0.0
21 05:35 Calm 7.00 Partly Cloudy SCT001 SCT007 SCT120 70.7 70.3 99% 30.1 0.0
21 05:15 Calm 10.00 Partly Cloudy SCT120 70.2 69.8 99% 30.1 0.0
21 04:55 Calm 3.00 Fair CLR 70.2 69.8 99% 30.1 0.0
21 04:35 Calm 1.50 Mostly Cloudy BKN001 70.5 70 98% 30.1 0.0
21 04:15 Calm 0.75 Overcast OVC001 70.7 70.2 98% 30.1 0.0
21 03:55 Calm 4.00 Overcast OVC001 70.3 69.8 98% 30.1 0.0
21 03:35 Calm 4.00 Mostly Cloudy BKN001 70.2 69.8 99% 30.1 0.0
21 03:15 Calm 5.00 Partly Cloudy SCT001 70.2 69.8 99% 30.11 0.0
21 02:55 Calm 3.00 Fair CLR 69.8 69.3 98% 30.11 0.0
21 02:35 Calm 7.00 Fair CLR 70.7 70.2 98% 30.11 0.0
21 02:15 Calm 7.00 Fair CLR 70.7 70.2 98% 30.11 0.0
21 01:55 Calm 5.00 Fair CLR 70 69.6 76.1 69.8 99% 30.12 0.0
21 01:35 Calm 5.00 Partly Cloudy SCT003 70.3 70 99% 30.13 0.0
21 01:15 Calm 10.00 Fair CLR 70.5 70.2 99% 30.12 0.0
21 00:55 Calm 10.00 Fair CLR 71.1 70.7 99% 30.12 0.0
21 00:35 Calm 10.00 Fair CLR 71.6 70.9 98% 30.12 0.0
20 23:55 Calm 7.00 Fair CLR 71.1 70.7 99% 30.11 0.0
20 23:35 Calm 2.00 Fair CLR 72 71.6 99% 30.1 0.0
20 23:15 Calm 5.00 Fair CLR 72 71.6 99% 30.12 0.0
20 22:55 Calm 10.00 Fair CLR 73 72.5 98% 30.12 0.0
20 22:35 Calm 10.00 Fair CLR 73 72.7 99% 30.12 0.0
20 22:15 Calm 10.00 Fair CLR 73.4 73 99% 30.13 0.0
20 21:55 Calm 10.00 Partly Cloudy SCT110 73.8 73.4 99% 30.13 0.0
20 21:35 Calm 10.00 Partly Cloudy SCT110 74.5 73.9 98% 30.13 0.0
20 21:15 Calm 10.00 Partly Cloudy SCT110 74.7 74.3 99% 30.13 0.0
20 20:55 Calm 10.00 Fair CLR 74.8 74.3 98% 30.13 0.0
20 20:35 N 3 10.00 Partly Cloudy SCT070 SCT120 75.2 74.7 98% 73 30.12 0.0
20 20:15 Calm 10.00 Mostly Cloudy BKN070 75.6 75.2 99% 74 30.12 0.0
20 19:55 N 3 10.00 Mostly Cloudy BKN070 76.1 75.6 83.5 73.2 98% 75 30.12 0.0 0.47
20 19:35 Calm 10.00 Partly Cloudy SCT070 76.1 75.4 98% 75 30.11 0.0
20 19:15 Calm 10.00 Partly Cloudy SCT060 76.1 75.2 97% 75 30.11 0.0
20 18:55 N 6 10.00 Mostly Cloudy SCT018 BKN060 77.2 74.7 92% 79 30.1 0.0
20 18:35 N 5 10.00 Overcast SCT011 SCT018 OVC070 77.2 74.8 93% 78 30.1 0.0
20 18:15 N 7 10.00 Overcast SCT013 OVC070 77.4 74.5 91% 79 30.1 0.0
Date Time (edt) Wind (mph) Vis. (mi.) Weather Sky Cond. Air Dwpt Max. Min. Relative Humidity Wind Chill (°F) Heat Index (°F) altimeter (in) sea level (mb) 1 hr 3 hr 6 hr
6 hour
Temperature (ºF) Pressure Precipitation (in)